TimeEST,TemperatureF,Dew PointF,Humidity,Sea Level PressureIn,VisibilityMPH,Wind Direction,Wind SpeedMPH,Gust SpeedMPH,PrecipitationIn,Events,Conditions,WindDirDegrees,DateUTC
12:55 AM,29.7,26.2,87,29.85,8.0,West,12.7,20.7,0.00,Snow,Light Snow,260,2013-03-06 05:55:00
1:55 AM,30.0,27.0,88,29.85,6.0,West,17.3,23.0,0.00,Snow,Light Snow,260,2013-03-06 06:55:00
2:55 AM,30.2,27.1,88,29.85,6.0,West,17.3,24.2,0.00,Snow,Light Snow,270,2013-03-06 07:55:00
3:16 AM,30.2,26.6,86,29.86,4.0,West,15.0,24.2,N/A,Snow,Light Snow,270,2013-03-06 08:16:00
3:24 AM,30.2,26.6,86,29.86,4.0,West,18.4,24.2,N/A,Snow,Light Snow,270,2013-03-06 08:24:00
3:55 AM,30.2,26.6,86,29.87,9.0,WNW,13.8,33.4,0.00,Snow,Light Snow,290,2013-03-06 08:55:00
4:41 AM,30.2,26.6,86,29.91,4.0,West,17.3,21.9,N/A,Snow,Light Snow,280,2013-03-06 09:41:00
4:55 AM,30.2,27.7,90,29.91,5.0,West,13.8,-,0.00,Snow,Light Snow,280,2013-03-06 09:55:00
5:00 AM,30.2,28.4,93,29.92,5.0,WNW,15.0,20.7,N/A,Snow,Light Snow,290,2013-03-06 10:00:00
5:06 AM,30.2,28.4,93,29.92,5.0,West,15.0,21.9,N/A,Snow,Light Snow,280,2013-03-06 10:06:00
5:33 AM,30.2,28.4,93,29.94,10.0,WNW,15.0,20.7,N/A,Snow,Light Snow,300,2013-03-06 10:33:00
5:39 AM,30.2,28.4,93,29.95,10.0,WNW,13.8,20.7,N/A,,Overcast,300,2013-03-06 10:39:00
5:53 AM,30.2,26.6,86,29.95,10.0,WNW,13.8,24.2,N/A,Snow,Light Snow,290,2013-03-06 10:53:00
5:55 AM,30.6,27.3,88,29.95,10.0,WNW,15.0,-,0.00,Snow,Light Snow,290,2013-03-06 10:55:00
6:13 AM,30.2,26.6,86,29.96,10.0,West,12.7,-,N/A,,Overcast,280,2013-03-06 11:13:00
6:30 AM,30.2,26.6,86,29.97,10.0,West,12.7,-,N/A,Snow,Light Snow,280,2013-03-06 11:30:00
6:55 AM,30.6,27.3,88,29.99,7.0,WNW,11.5,24.2,0.00,Snow,Light Snow,290,2013-03-06 11:55:00
7:20 AM,32.0,26.6,80,29.98,8.0,WNW,15.0,-,N/A,Snow,Light Snow,290,2013-03-06 12:20:00
7:55 AM,30.2,27.7,90,30.04,5.0,WNW,13.8,25.3,0.00,Snow,Light Snow,290,2013-03-06 12:55:00
8:55 AM,30.6,28.0,90,30.09,4.0,WNW,17.3,-,0.00,Snow,Light Snow,290,2013-03-06 13:55:00
9:55 AM,30.7,28.2,90,30.14,4.0,WNW,11.5,23.0,0.00,Snow,Light Snow,300,2013-03-06 14:55:00
10:44 AM,32.0,28.4,87,30.12,6.0,WNW,10.4,-,N/A,Snow,Light Snow Grains,300,2013-03-06 15:44:00
10:55 AM,31.5,28.6,89,30.17,7.0,WNW,11.5,-,0.00,Snow,Light Snow Grains,290,2013-03-06 15:55:00
11:55 AM,31.8,28.4,87,30.19,10.0,NW,10.4,-,N/A,Snow,Light Snow Grains,310,2013-03-06 16:55:00
12:55 PM,32.4,28.4,85,30.20,7.0,NNW,12.7,-,0.00,Snow,Light Snow Grains,330,2013-03-06 17:55:00
1:55 PM,32.5,28.6,85,30.20,7.0,WNW,10.4,-,0.00,Snow,Light Snow Grains,290,2013-03-06 18:55:00
2:55 PM,32.0,28.0,85,30.22,10.0,NW,12.7,-,N/A,,Overcast,310,2013-03-06 19:55:00
3:55 PM,32.5,28.2,84,30.24,10.0,West,6.9,-,N/A,,Overcast,270,2013-03-06 20:55:00
4:55 PM,31.8,28.2,87,30.25,10.0,WNW,8.1,-,N/A,,Overcast,290,2013-03-06 21:55:00
5:55 PM,31.6,27.3,84,30.28,10.0,NW,11.5,-,N/A,,Overcast,310,2013-03-06 22:55:00
6:03 PM,32.0,26.6,80,30.24,10.0,NW,10.4,-,N/A,Snow,Light Snow,310,2013-03-06 23:03:00
6:40 PM,32.0,26.6,80,30.24,10.0,WNW,4.6,-,N/A,,Overcast,300,2013-03-06 23:40:00
6:55 PM,31.1,27.0,85,30.29,10.0,NW,9.2,-,0.00,,Overcast,320,2013-03-06 23:55:00
7:11 PM,32.0,26.6,80,30.26,10.0,West,6.9,-,N/A,Snow,Light Snow,280,2013-03-07 00:11:00
7:55 PM,30.7,26.6,85,30.32,10.0,WNW,6.9,-,0.00,,Overcast,290,2013-03-07 00:55:00
8:55 PM,30.6,26.4,85,30.31,10.0,WNW,4.6,-,0.00,,Overcast,300,2013-03-07 01:55:00
9:55 PM,30.2,25.9,84,30.32,7.0,NNW,8.1,-,0.00,Snow,Light Snow,340,2013-03-07 02:55:00
10:55 PM,30.2,25.9,84,30.32,7.0,WNW,4.6,-,N/A,Snow,Light Snow,300,2013-03-07 03:55:00
11:01 PM,30.2,26.6,86,30.32,10.0,NW,3.5,-,N/A,,Overcast,310,2013-03-07 04:01:00
11:13 PM,30.2,26.6,86,30.32,10.0,NW,3.5,-,N/A,,Overcast,320,2013-03-07 04:13:00
11:18 PM,30.2,26.6,86,30.32,10.0,NW,4.6,-,N/A,,Overcast,320,2013-03-07 04:18:00
11:31 PM,30.2,26.6,86,30.31,10.0,NNW,3.5,-,N/A,,Overcast,330,2013-03-07 04:31:00
11:48 PM,30.2,26.6,86,30.30,10.0,NNW,4.6,-,N/A,,Overcast,340,2013-03-07 04:48:00
11:55 PM,30.4,26.1,84,30.30,10.0,NNW,3.5,-,0.00,,Overcast,330,2013-03-07 04:55:00